FW3788 Weather Reports


Display with metric or nautical units.
time (UTC)temp
F
wind
direction
speed
MPH
gust
MPH
rain 1hr
in
rain 24hr
in
rain mn
in
humidity
%
barometer
mb
20220818162519 91 350 4.0 9.0 0.00 0.00 0.00 12 1009.9
20220818162013 90 359 4.0 8.0 0.00 0.00 0.00 11 1009.9
20220818161520 90 341 2.0 6.0 0.00 0.00 0.00 10 1009.9
20220818161023 89 313 1.0 5.0 0.00 0.00 0.00 9 1009.9
20220818160524 88 297 2.0 5.0 0.00 0.00 0.00 9 1010.0
20220818160013 88 144 1.0 3.0 0.00 0.00 0.00 8 1010.0
20220818155513 87 142 0.0 2.0 0.00 0.00 0.00 9 1009.9
20220818155114 86 142 0.0 2.0 0.00 0.00 0.00 9 1010.0
20220818154514 85 142 0.0 0.0 0.00 0.00 0.00 10 1009.9
20220818154016 84 142 0.0 0.0 0.00 0.00 0.00 12 1010.0
20220818153516 83 142 0.0 0.0 0.00 0.00 0.00 11 1010.0
20220818153035 82 142 0.0 0.0 0.00 0.00 0.00 11 1010.0
20220818152525 80 142 0.0 0.0 0.00 0.00 0.00 12 1010.0
20220818152013 79 142 0.0 0.0 0.00 0.00 0.00 15 1009.9
20220818151535 78 142 0.0 0.0 0.00 0.00 0.00 15 1010.0
20220818151023 78 142 0.0 0.0 0.00 0.00 0.00 14 1010.0
20220818150513 77 142 0.0 0.0 0.00 0.00 0.00 15 1010.0
20220818150014 76 142 0.0 0.0 0.00 0.00 0.00 15 1010.0
20220818145517 75 142 0.0 1.0 0.00 0.00 0.00 16 1010.0
20220818145015 74 142 0.0 1.0 0.00 0.00 0.00 15 1009.9
20220818144513 72 142 0.0 0.0 0.00 0.00 0.00 15 1009.9
20220818144019 71 142 0.0 0.0 0.00 0.00 0.00 17 1010.0
20220818143515 70 142 0.0 1.0 0.00 0.00 0.00 17 1010.0
20220818143033 70 142 0.0 1.0 0.00 0.00 0.00 17 1009.9
20220818142515 70 142 0.0 1.0 0.00 0.00 0.00 17 1010.0
20220818142013 70 142 0.0 1.0 0.00 0.00 0.00 16 1009.9
20220818141527 69 142 0.0 2.0 0.00 0.00 0.00 17 1010.0
20220818141021 68 142 0.0 2.0 0.00 0.00 0.00 18 1009.9
20220818140514 67 143 0.0 3.0 0.00 0.00 0.00 18 1009.9
20220818140013 67 143 0.0 3.0 0.00 0.00 0.00 19 1009.8
20220818135514 66 145 0.0 2.0 0.00 0.00 0.00 19 1009.9
20220818135013 66 145 0.0 3.0 0.00 0.00 0.00 20 1009.8
20220818134513 66 145 0.0 3.0 0.00 0.00 0.00 20 1009.7
20220818134014 66 145 0.0 3.0 0.00 0.00 0.00 20 1009.7
20220818133513 66 145 1.0 3.0 0.00 0.00 0.00 20 1009.7
20220818133020 67 145 0.0 1.0 0.00 0.00 0.00 20 1009.6
20220818132514 67 145 0.0 1.0 0.00 0.00 0.00 20 1009.6
20220818132020 67 145 0.0 3.0 0.00 0.00 0.00 22 1009.5
20220818131536 67 145 0.0 3.0 0.00 0.00 0.00 22 1009.5
20220818131014 67 145 0.0 3.0 0.00 0.00 0.00 21 1009.4
20220818130513 67 145 0.0 1.0 0.00 0.00 0.00 20 1009.4
20220818130115 68 145 0.0 1.0 0.00 0.00 0.00 18 1009.4
20220818125513 67 145 0.0 1.0 0.00 0.00 0.00 19 1009.2
20220818125014 67 145 0.0 1.0 0.00 0.00 0.00 19 1009.2
20220818124513 67 145 0.0 1.0 0.00 0.00 0.00 20 1009.2
20220818124016 67 145 0.0 1.0 0.00 0.00 0.00 23 1009.1
20220818123515 67 145 0.0 3.0 0.00 0.00 0.00 24 1009.1
20220818123015 67 144 1.0 3.0 0.00 0.00 0.00 24 1009.1
20220818122515 67 143 0.0 1.0 0.00 0.00 0.00 24 1009.1
20220818122013 67 143 0.0 3.0 0.00 0.00 0.00 25 1009.1
20220818121620 67 144 0.0 3.0 0.00 0.00 0.00 25 1009.0
20220818121015 67 144 0.0 2.0 0.00 0.00 0.00 25 1009.1
20220818120513 67 144 0.0 2.0 0.00 0.00 0.00 25 1009.1
20220818120027 68 143 0.0 1.0 0.00 0.00 0.00 22 1008.9
20220818115613 68 143 0.0 1.0 0.00 0.00 0.00 22 1008.9
20220818115013 68 143 0.0 2.0 0.00 0.00 0.00 23 1008.9
20220818114521 68 144 0.0 2.0 0.00 0.00 0.00 25 1008.8
20220818114016 67 144 0.0 2.0 0.00 0.00 0.00 25 1008.8
20220818113513 67 144 0.0 1.0 0.00 0.00 0.00 26 1008.8
20220818113014 67 143 0.0 2.0 0.00 0.00 0.00 26 1008.9
20220818112515 68 143 0.0 1.0 0.00 0.00 0.00 26 1008.8
20220818112018 68 144 0.0 1.0 0.00 0.00 0.00 24 1008.8
20220818111513 67 143 0.0 1.0 0.00 0.00 0.00 26 1008.8
20220818111023 68 144 0.0 1.0 0.00 0.00 0.00 27 1008.8
20220818110515 68 144 0.0 1.0 0.00 0.00 0.00 26 1008.9
20220818110027 68 143 0.0 1.0 0.00 0.00 0.00 25 1008.9
20220818105518 67 143 0.0 1.0 0.00 0.00 0.00 27 1008.9
20220818105017 67 144 0.0 3.0 0.00 0.00 0.00 27 1008.9
20220818104516 67 143 0.0 3.0 0.00 0.00 0.00 28 1008.9
20220818104013 67 127 1.0 3.0 0.00 0.00 0.00 28 1008.9
20220818103513 67 127 0.0 1.0 0.00 0.00 0.00 29 1008.9
20220818103031 67 127 0.0 1.0 0.00 0.00 0.00 29 1008.9
20220818102517 67 127 0.0 2.0 0.00 0.00 0.00 29 1008.9
20220818102014 67 127 1.0 2.0 0.00 0.00 0.00 30 1009.0
20220818101514 68 127 0.0 0.0 0.00 0.00 0.00 30 1008.9
20220818101017 68 127 0.0 2.0 0.00 0.00 0.00 29 1008.9
20220818100513 68 127 0.0 2.0 0.00 0.00 0.00 30 1009.0
20220818100013 68 127 0.0 2.0 0.00 0.00 0.00 30 1008.9
20220818095516 68 127 0.0 2.0 0.00 0.00 0.00 30 1008.9
20220818095018 67 127 0.0 2.0 0.00 0.00 0.00 31 1008.9
20220818094515 68 127 1.0 3.0 0.00 0.00 0.00 30 1008.8
20220818094115 68 127 0.0 3.0 0.00 0.00 0.00 30 1008.8
20220818093521 68 127 0.0 2.0 0.00 0.00 0.00 30 1008.8
20220818093015 68 127 0.0 1.0 0.00 0.00 0.00 30 1008.8
20220818092514 68 127 0.0 1.0 0.00 0.00 0.00 30 1008.8
20220818092022 68 127 0.0 1.0 0.00 0.00 0.00 30 1008.8
20220818091514 68 127 0.0 0.0 0.00 0.00 0.00 30 1008.8
20220818091114 68 127 0.0 4.0 0.00 0.00 0.00 30 1008.8
20220818090513 68 127 1.0 4.0 0.00 0.00 0.00 32 1008.8
20220818090013 68 116 1.0 4.0 0.00 0.00 0.00 31 1008.8
20220818085513 68 107 0.0 1.0 0.00 0.00 0.00 29 1008.8
20220818085015 69 107 0.0 2.0 0.00 0.00 0.00 30 1008.8
20220818084541 69 107 0.0 2.0 0.00 0.00 0.00 29 1008.8
20220818084013 69 108 0.0 1.0 0.00 0.00 0.00 29 1008.8
20220818083513 69 107 0.0 1.0 0.00 0.00 0.00 30 1008.9
20220818083021 68 107 0.0 1.0 0.00 0.00 0.00 32 1008.9
20220818082514 68 108 0.0 1.0 0.00 0.00 0.00 30 1008.9
20220818082014 69 107 0.0 2.0 0.00 0.00 0.00 29 1008.8
20220818081516 69 107 0.0 2.0 0.00 0.00 0.00 31 1008.8
20220818081023 69 92 1.0 2.0 0.00 0.00 0.00 30 1008.9
20220818080515 70 92 0.0 2.0 0.00 0.00 0.00 27 1008.9
20220818080017 69 92 0.0 1.0 0.00 0.00 0.00 27 1008.8
20220818075519 69 92 0.0 1.0 0.00 0.00 0.00 30 1008.8
20220818075019 70 92 0.0 1.0 0.00 0.00 0.00 30 1008.8
20220818074521 70 92 0.0 1.0 0.00 0.00 0.00 28 1008.9
20220818074014 70 92 0.0 1.0 0.00 0.00 0.00 30 1008.8
20220818073515 70 92 0.0 0.0 0.00 0.00 0.00 28 1008.8
20220818073020 70 92 0.0 2.0 0.00 0.00 0.00 30 1008.8
20220818072513 70 92 0.0 2.0 0.00 0.00 0.00 30 1008.8
20220818072014 70 92 0.0 2.0 0.00 0.00 0.00 31 1008.8
20220818071521 70 92 0.0 2.0 0.00 0.00 0.00 31 1008.8
20220818071017 70 92 0.0 1.0 0.00 0.00 0.00 30 1008.8
20220818070515 71 92 0.0 1.0 0.00 0.00 0.00 29 1008.8
20220818070014 72 92 0.0 3.0 0.00 0.00 0.00 28 1008.8
20220818065513 71 92 0.0 4.0 0.00 0.00 0.00 30 1008.8
20220818065017 70 92 1.0 5.0 0.00 0.00 0.00 31 1008.8
20220818064513 69 165 2.0 5.0 0.00 0.00 0.00 32 1008.8
20220818064014 68 137 2.0 4.0 0.00 0.00 0.00 32 1008.9
20220818063517 69 131 0.0 1.0 0.00 0.00 0.00 29 1008.8
20220818063028 69 131 0.0 2.0 0.00 0.00 0.00 30 1008.8
20220818062517 70 131 0.0 2.0 0.00 0.00 0.00 29 1008.8
20220818062014 70 131 0.0 1.0 0.00 0.00 0.00 29 1008.8
20220818061514 70 131 0.0 1.0 0.00 0.00 0.00 29 1008.7
20220818061015 70 131 0.0 0.0 0.00 0.00 0.00 29 1008.6
20220818060619 71 131 0.0 0.0 0.00 0.00 0.00 29 1008.7
20220818060017 71 131 0.0 1.0 0.00 0.00 0.00 28 1008.7
20220818055517 72 131 0.0 1.0 0.00 0.00 0.00 28 1008.6
20220818055013 73 131 0.0 2.0 0.00 0.00 0.00 27 1008.6
20220818054651 73 131 0.0 3.0 0.00 0.00 0.00 27 1008.6
20220818054017 73 131 1.0 3.0 0.00 0.00 0.00 28 1008.6
20220818053518 72 129 0.0 1.0 0.00 0.00 0.00 28 1008.6
20220818053014 72 129 0.0 1.0 0.00 0.00 0.00 28 1008.6
20220818052513 72 129 0.0 4.0 0.00 0.00 0.00 28 1008.6
20220818052013 72 129 1.0 4.0 0.00 0.00 0.00 27 1008.6
20220818051520 72 92 0.0 1.0 0.00 0.00 0.00 28 1008.6
20220818051021 72 92 0.0 3.0 0.00 0.00 0.00 28 1008.6
20220818050513 72 94 0.0 3.0 0.00 0.00 0.00 28 1008.6
20220818050014 72 166 1.0 3.0 0.00 0.00 0.00 28 1008.5
20220818045518 72 166 0.0 2.0 0.00 0.00 0.00 27 1008.5
20220818045016 72 166 0.0 3.0 0.00 0.00 0.00 27 1008.6
20220818044515 73 166 1.0 3.0 0.00 0.00 0.00 26 1008.5
20220818044018 73 166 0.0 2.0 0.00 0.00 0.00 27 1008.5
20220818043524 73 166 0.0 2.0 0.00 0.00 0.00 26 1008.5
20220818043014 74 166 0.0 2.0 0.00 0.00 0.00 26 1008.5
20220818042513 74 166 0.0 1.0 0.00 0.00 0.00 25 1008.4
20220818042018 75 166 0.0 1.0 0.00 0.00 0.00 25 1008.3
20220818041515 75 166 0.0 1.0 0.00 0.00 0.00 25 1008.3
20220818041015 76 166 0.0 0.0 0.00 0.00 0.00 24 1008.2
20220818040514 76 166 0.0 2.0 0.00 0.00 0.00 24 1008.1
20220818040024 77 166 0.0 2.0 0.00 0.00 0.00 24 1008.1
20220818035516 77 166 0.0 2.0 0.00 0.00 0.00 23 1008.1
20220818035014 77 166 0.0 2.0 0.00 0.00 0.00 23 1008.0
20220818034518 77 172 0.0 2.0 0.00 0.00 0.00 23 1008.0
20220818034021 77 204 0.0 2.0 0.00 0.00 0.00 23 1008.0
20220818033515 77 222 0.0 3.0 0.00 0.00 0.00 23 1008.0
20220818033033 78 222 1.0 3.0 0.00 0.00 0.00 22 1008.0
20220818032517 80 297 0.0 1.0 0.00 0.00 0.00 21 1008.0
20220818032013 81 297 0.0 1.0 0.00 0.00 0.00 20 1007.9
20220818031536 81 297 0.0 3.0 0.00 0.00 0.00 20 1007.9
20220818031014 81 333 0.0 5.0 0.00 0.00 0.00 20 1007.9
20220818030520 82 312 0.0 6.0 0.00 0.00 0.00 20 1007.9
20220818030046 82 332 2.0 6.0 0.00 0.00 0.00 20 1007.8
20220818025519 82 322 1.0 6.0 0.00 0.00 0.00 20 1007.8
20220818025017 83 320 1.0 6.0 0.00 0.00 0.00 20 1007.8
20220818024514 83 295 0.0 1.0 0.00 0.00 0.00 20 1007.7
20220818024019 83 295 0.0 0.0 0.00 0.00 0.00 20 1007.6
20220818023517 84 295 0.0 2.0 0.00 0.00 0.00 19 1007.5
20220818023038 84 295 0.0 3.0 0.00 0.00 0.00 19 1007.5
20220818022514 84 293 0.0 4.0 0.00 0.00 0.00 19 1007.5
20220818022018 84 287 0.0 9.0 0.00 0.00 0.00 19 1007.4
20220818021527 85 310 1.0 9.0 0.00 0.00 0.00 19 1007.4
20220818021018 86 275 2.0 10.0 0.00 0.00 0.00 18 1007.3
20220818020515 87 301 3.0 9.0 0.00 0.00 0.00 18 1007.2
20220818020015 87 318 2.0 8.0 0.00 0.00 0.00 18 1007.2
20220818015514 88 298 2.0 8.0 0.00 0.00 0.00 18 1007.1
20220818015017 88 349 3.0 11.0 0.00 0.00 0.00 18 1007.1
20220818014519 89 334 5.0 11.0 0.00 0.00 0.00 18 1007.1
20220818014013 89 287 1.0 8.0 0.00 0.00 0.00 18 1007.1
20220818013515 89 324 2.0 8.0 0.00 0.00 0.00 18 1007.0
20220818013019 89 295 3.0 11.0 0.00 0.00 0.00 17 1007.0
20220818012514 89 291 5.0 11.0 0.00 0.00 0.00 17 1007.0
20220818012015 90 289 5.0 11.0 0.00 0.00 0.00 17 1006.9
20220818011603 90 313 5.0 11.0 0.00 0.00 0.00 17 1006.9
20220818011016 90 333 5.0 14.0 0.00 0.00 0.00 17 1006.9
20220818010517 90 316 6.0 14.0 0.00 0.00 0.00 17 1007.0
20220818010014 91 328 6.0 17.0 0.00 0.00 0.00 17 1006.8
20220818005516 91 349 9.0 17.0 0.00 0.00 0.00 17 1006.8
20220818005014 92 334 6.0 13.0 0.00 0.00 0.00 16 1006.8
20220818004523 93 291 4.0 10.0 0.00 0.00 0.00 16 1006.7
20220818004015 94 327 4.0 12.0 0.00 0.00 0.00 15 1006.7
20220818003514 94 324 4.0 12.0 0.00 0.00 0.00 15 1006.7
20220818003031 96 250 5.0 11.0 0.00 0.00 0.00 15 1006.6
20220818002516 97 226 4.0 8.0 0.00 0.00 0.00 14 1006.6
20220818002014 98 261 5.0 8.0 0.00 0.00 0.00 14 1006.6
20220818001514 98 263 3.0 8.0 0.00 0.00 0.00 13 1006.6
20220818001020 98 340 3.0 8.0 0.00 0.00 0.00 13 1006.6
20220818000514 98 272 2.0 7.0 0.00 0.00 0.00 13 1006.5
20220818000013 99 301 2.0 7.0 0.00 0.00 0.00 12 1006.6
20220817235516 99 231 1.0 5.0 0.00 0.00 0.00 12 1006.6
20220817235016 99 266 1.0 7.0 0.00 0.00 0.00 12 1006.6
20220817234514 99 181 1.0 7.0 0.00 0.00 0.00 12 1006.7
20220817234019 99 195 1.0 11.0 0.00 0.00 0.00 11 1006.7
20220817233517 99 172 2.0 9.0 0.00 0.00 0.00 11 1006.7
20220817233020 99 208 0.0 10.0 0.00 0.00 0.00 12 1006.6
20220817232514 99 214 4.0 9.0 0.00 0.00 0.00 12 1006.6
20220817232014 98 185 5.0 9.0 0.00 0.00 0.00 12 1006.6
20220817231525 100 258 3.0 7.0 0.00 0.00 0.00 12 1006.6
20220817231018 101 256 2.0 7.0 0.00 0.00 0.00 11 1006.6
20220817230513 101 137 1.0 9.0 0.00 0.00 0.00 10 1006.7
20220817230014 101 199 5.0 10.0 0.00 0.00 0.00 10 1006.6
20220817225514 101 175 0.0 12.0 0.00 0.00 0.00 10 1006.6
20220817225013 101 314 4.0 12.0 0.00 0.00 0.00 10 1006.7
20220817224539 100 359 3.0 11.0 0.00 0.00 0.00 10 1006.7
20220817224016 99 330 4.0 11.0 0.00 0.00 0.00 10 1006.8
20220817223513 101 19 8.0 13.0 0.00 0.00 0.00 10 1006.7
20220817223014 102 316 4.0 13.0 0.00 0.00 0.00 10 1006.5
20220817222519 100 341 1.0 11.0 0.00 0.00 0.00 10 1006.7
20220817222016 99 318 1.0 9.0 0.00 0.00 0.00 10 1006.8
20220817221520 99 43 2.0 9.0 0.00 0.00 0.00 11 1006.9
20220817221017 99 350 4.0 10.0 0.00 0.00 0.00 11 1007.0
20220817220514 99 10 4.0 10.0 0.00 0.00 0.00 11 1006.9
20220817220017 100 111 2.0 14.0 0.00 0.00 0.00 11 1007.0
20220817215516 99 31 6.0 14.0 0.00 0.00 0.00 11 1007.0
20220817215017 99 333 1.0 6.0 0.00 0.00 0.00 11 1006.9
20220817214525 99 141 2.0 10.0 0.00 0.00 0.00 11 1007.1
20220817214014 99 146 7.0 12.0 0.00 0.00 0.00 10 1007.2
20220817213516 99 188 7.0 14.0 0.00 0.00 0.00 10 1007.3
20220817213045 98 184 5.0 14.0 0.00 0.00 0.00 11 1007.3
20220817212513 98 160 5.0 12.0 0.00 0.00 0.00 11 1007.4
20220817212014 98 174 3.0 13.0 0.00 0.00 0.00 11 1007.4
20220817211532 99 168 5.0 9.0 0.00 0.00 0.00 10 1007.5
20220817211018 99 154 5.0 9.0 0.00 0.00 0.00 10 1007.6
20220817210517 98 212 1.0 11.0 0.00 0.00 0.00 11 1007.6
20220817210015 96 139 5.0 11.0 0.00 0.00 0.00 12 1007.6
20220817205517 96 162 5.0 12.0 0.00 0.00 0.00 11 1007.7
20220817205018 96 164 7.0 12.0 0.00 0.00 0.00 11 1007.7
20220817204518 97 196 6.0 10.0 0.00 0.00 0.00 11 1007.6
20220817204016 98 274 2.0 6.0 0.00 0.00 0.00 11 1007.7
20220817203519 97 291 1.0 10.0 0.00 0.00 0.00 12 1007.7
20220817203022 96 262 4.0 10.0 0.00 0.00 0.00 12 1007.8
20220817202513 96 185 5.0 9.0 0.00 0.00 0.00 13 1007.8
20220817202014 94 162 6.0 9.0 0.00 0.00 0.00 13 1007.8
20220817201514 94 157 3.0 8.0 0.00 0.00 0.00 13 1007.8
20220817201014 94 167 2.0 11.0 0.00 0.00 0.00 13 1008.0
20220817200517 92 172 6.0 12.0 0.00 0.00 0.00 13 1008.0
20220817200015 92 152 8.0 12.0 0.00 0.00 0.00 13 1008.1
20220817195516 92 195 5.0 10.0 0.00 0.00 0.00 13 1008.2
20220817195014 91 165 4.0 11.0 0.00 0.00 0.00 14 1008.2
20220817194522 91 160 6.0 11.0 0.00 0.00 0.00 14 1008.3
20220817194015 91 175 4.0 10.0 0.00 0.00 0.00 14 1008.3
20220817193515 90 195 5.0 11.0 0.00 0.00 0.00 15 1008.3
20220817193014 90 195 7.0 13.0 0.00 0.00 0.00 15 1008.3
20220817192514 90 175 7.0 14.0 0.00 0.00 0.00 15 1008.4
20220817192014 89 177 8.0 16.0 0.00 0.00 0.00 16 1008.4
20220817191520 89 192 9.0 18.0 0.00 0.00 0.00 16 1008.5
20220817191115 89 174 11.0 18.0 0.00 0.00 0.00 16 1008.5
20220817190516 88 183 11.0 19.0 0.00 0.00 0.00 17 1008.6
20220817190015 88 149 13.0 19.0 0.00 0.00 0.00 17 1008.5
20220817185515 89 179 13.0 19.0 0.00 0.00 0.00 16 1008.5
20220817185014 90 174 12.0 17.0 0.00 0.00 0.00 16 1008.4
20220817184515 91 166 12.0 15.0 0.00 0.00 0.00 15 1008.3
20220817184016 92 174 12.0 15.0 0.00 0.00 0.00 14 1008.3
20220817183517 93 195 2.0 7.0 0.00 0.00 0.00 13 1008.3
20220817183014 93 267 1.0 6.0 0.00 0.00 0.00 14 1008.2
20220817182526 93 270 1.0 6.0 0.00 0.00 0.00 14 1008.1
20220817182014 92 280 1.0 9.0 0.00 0.00 0.00 14 1008.1
20220817181530 91 285 4.0 9.0 0.00 0.00 0.00 15 1008.2
20220817181021 91 314 4.0 8.0 0.00 0.00 0.00 16 1008.3
20220817180517 90 291 4.0 8.0 0.00 0.00 0.00 16 1008.3
20220817180018 90 299 1.0 7.0 0.00 0.00 0.00 16 1008.4
20220817175516 89 8 2.0 7.0 0.00 0.00 0.00 16 1008.4
20220817175014 89 264 2.0 6.0 0.00 0.00 0.00 17 1008.3
20220817174522 89 294 0.0 5.0 0.00 0.00 0.00 17 1008.2
20220817174014 88 338 1.0 5.0 0.00 0.00 0.00 17 1008.3
20220817173517 88 285 2.0 9.0 0.00 0.00 0.00 17 1008.3
20220817173023 89 305 4.0 9.0 0.00 0.00 0.00 16 1008.2
20220817172519 89 322 5.0 7.0 0.00 0.00 0.00 15 1008.2
20220817172022 89 293 1.0 4.0 0.00 0.00 0.00 15 1008.2
20220817171520 89 105 0.0 2.0 0.00 0.00 0.00 15 1008.2
20220817171015 89 105 0.0 3.0 0.00 0.00 0.00 15 1008.2
20220817170614 88 168 0.0 6.0 0.00 0.00 0.00 15 1008.2
20220817170020 88 168 2.0 6.0 0.00 0.00 0.00 15 1008.3
20220817165514 88 62 3.0 5.0 0.00 0.00 0.00 15 1008.2
20220817165018 87 198 0.0 6.0 0.00 0.00 0.00 16 1008.1
20220817164514 87 198 2.0 6.0 0.00 0.00 0.00 16 1008.1
20220817164017 87 197 1.0 5.0 0.00 0.00 0.00 16 1008.2
20220817163514 87 197 2.0 5.0 0.00 0.00 0.00 17 1008.3
20220817163015 87 154 0.0 1.0 0.00 0.00 0.00 19 1008.4